When you browse on this site, cookies collect data to enhance your experience and personalize the content and advertising you see.
Visit our Privacy Policy to learn more. By continuing to use the site, you agree to this use of cookies and data.

Hourly Weather Lethem

Today, 19 September, Saturday

Time Temperature Precipitation Wind Pressure Humidity
00:00 +28°C° 0 mm 1 mps 749 mmHg 76%
01:00 +28°C° 0 mm 2 mps 749 mmHg 77%
02:00 +27°C° 0 mm 2 mps 749 mmHg 79%
03:00 +27°C° 0.2 mm 2 mps 749 mmHg 81%
04:00 +27°C° 0.2 mm 2 mps 749 mmHg 84%
05:00 +26°C° 0.2 mm 2 mps 749 mmHg 86%
06:00 +27°C° 0 mm 2 mps 750 mmHg 82%
07:00 +29°C° 0 mm 3 mps 750 mmHg 78%
08:00 +30°C° 0 mm 3 mps 751 mmHg 74%
09:00 +33°C° 0 mm 3 mps 751 mmHg 66%
10:00 +34°C° 0 mm 3 mps 751 mmHg 58%
11:00 +36°C° 0 mm 4 mps 751 mmHg 51%
12:00 +37°C° 0 mm 3 mps 750 mmHg 46%
13:00 +38°C° 0 mm 2 mps 749 mmHg 41%
14:00 +39°C° 0 mm 2 mps 748 mmHg 36%
15:00 +38°C° 0 mm 2 mps 747 mmHg 41%
16:00 +37°C° 0 mm 2 mps 747 mmHg 45%
17:00 +35°C° 0 mm 1 mps 747 mmHg 50%
18:00 +34°C° 0 mm 1 mps 747 mmHg 53%
19:00 +32°C° 0 mm 1 mps 748 mmHg 55%
20:00 +30°C° 0 mm 1 mps 749 mmHg 58%
21:00 +30°C° 0 mm 1 mps 749 mmHg 58%
22:00 +30°C° 0 mm 1 mps 749 mmHg 57%
23:00 +30°C° 0 mm 2 mps 749 mmHg 57%

Tomorrow, 20 September, Sunday

Time Temperature Precipitation Wind Pressure Humidity
00:00 +30°C° 0 mm 2 mps 749 mmHg 58%
01:00 +29°C° 0 mm 3 mps 749 mmHg 59%
02:00 +29°C° 0 mm 3 mps 748 mmHg 60%
03:00 +28°C° 0 mm 3 mps 748 mmHg 63%
04:00 +27°C° 0 mm 3 mps 749 mmHg 66%
05:00 +27°C° 0 mm 3 mps 749 mmHg 69%
06:00 +28°C° 0 mm 3 mps 750 mmHg 69%
07:00 +29°C° 0 mm 4 mps 750 mmHg 68%
08:00 +30°C° 0 mm 4 mps 751 mmHg 68%
09:00 +33°C° 0 mm 4 mps 751 mmHg 61%
10:00 +35°C° 0 mm 4 mps 751 mmHg 55%
11:00 +36°C° 0 mm 4 mps 751 mmHg 49%
12:00 +37°C° 0 mm 4 mps 750 mmHg 47%
13:00 +38°C° 0 mm 3 mps 749 mmHg 45%
14:00 +38°C° 0 mm 3 mps 748 mmHg 43%
15:00 +37°C° 0 mm 3 mps 748 mmHg 47%
16:00 +37°C° 0 mm 2 mps 748 mmHg 51%
17:00 +36°C° 0 mm 2 mps 747 mmHg 55%
18:00 +34°C° 0 mm 2 mps 748 mmHg 58%
19:00 +32°C° 0 mm 2 mps 748 mmHg 61%
20:00 +31°C° 0 mm 2 mps 748 mmHg 64%
21:00 +30°C° 0 mm 2 mps 749 mmHg 65%
22:00 +30°C° 0 mm 2 mps 749 mmHg 66%
23:00 +29°C° 0 mm 3 mps 749 mmHg 67%

Day after tomorrow, 21 September, Monday

Time Temperature Precipitation Wind Pressure Humidity
00:00 +29°C° 0 mm 3 mps 749 mmHg 69%
01:00 +28°C° 0 mm 4 mps 748 mmHg 72%
02:00 +28°C° 0 mm 4 mps 748 mmHg 75%
03:00 +28°C° 0 mm 4 mps 748 mmHg 76%
04:00 +27°C° 0 mm 4 mps 749 mmHg 78%
05:00 +27°C° 0 mm 4 mps 749 mmHg 80%
06:00 +28°C° 0 mm 4 mps 749 mmHg 77%
07:00 +29°C° 0 mm 5 mps 750 mmHg 73%
08:00 +30°C° 0 mm 5 mps 751 mmHg 70%
09:00 +32°C° 0 mm 5 mps 750 mmHg 65%
10:00 +34°C° 0 mm 5 mps 750 mmHg 60%
11:00 +36°C° 0 mm 5 mps 750 mmHg 55%
12:00 +36°C° 0 mm 5 mps 749 mmHg 52%
13:00 +37°C° 0 mm 4 mps 748 mmHg 49%
14:00 +38°C° 0 mm 4 mps 747 mmHg 46%
15:00 +37°C° 0 mm 4 mps 747 mmHg 49%
16:00 +37°C° 0 mm 3 mps 747 mmHg 52%
17:00 +36°C° 0 mm 3 mps 747 mmHg 55%
18:00 +34°C° 0.4 mm 3 mps 747 mmHg 60%
19:00 +33°C° 0.4 mm 3 mps 747 mmHg 66%
20:00 +30°C° 0.4 mm 3 mps 748 mmHg 71%
21:00 +29°C° 0.1 mm 3 mps 748 mmHg 74%
22:00 +29°C° 0.1 mm 3 mps 749 mmHg 77%
23:00 +28°C° 0.1 mm 3 mps 749 mmHg 80%

22 September, Tuesday

Time Temperature Precipitation Wind Pressure Humidity
00:00 +28°C° 0.2 mm 3 mps 749 mmHg 82%
01:00 +28°C° 0.2 mm 3 mps 749 mmHg 84%
02:00 +27°C° 0.2 mm 3 mps 748 mmHg 86%
03:00 +27°C° 0 mm 4 mps 748 mmHg 86%
04:00 +27°C° 0 mm 4 mps 749 mmHg 87%
05:00 +27°C° 0 mm 4 mps 749 mmHg 88%
06:00 +28°C° 0 mm 4 mps 749 mmHg 84%
07:00 +28°C° 0 mm 5 mps 750 mmHg 81%
08:00 +29°C° 0 mm 6 mps 751 mmHg 78%
09:00 +30°C° 0 mm 6 mps 751 mmHg 73%
10:00 +32°C° 0 mm 6 mps 751 mmHg 69%
11:00 +34°C° 0 mm 6 mps 751 mmHg 64%
12:00 +34°C° 0.2 mm 5 mps 750 mmHg 61%
13:00 +35°C° 0.2 mm 4 mps 749 mmHg 59%
14:00 +36°C° 0.2 mm 4 mps 748 mmHg 56%
15:00 +35°C° 0.8 mm 3 mps 748 mmHg 59%
16:00 +35°C° 0.8 mm 3 mps 748 mmHg 62%
17:00 +34°C° 0.8 mm 2 mps 747 mmHg 65%
18:00 +32°C° 0.5 mm 2 mps 748 mmHg 69%
19:00 +30°C° 0.5 mm 2 mps 748 mmHg 73%
20:00 +29°C° 0.5 mm 2 mps 748 mmHg 77%
21:00 +29°C° 0 mm 2 mps 748 mmHg 78%
22:00 +28°C° 0 mm 2 mps 749 mmHg 79%
23:00 +28°C° 0 mm 2 mps 749 mmHg 80%

23 September, Wednesday

Time Temperature Precipitation Wind Pressure Humidity
00:00 +28°C° 0 mm 2 mps 749 mmHg 81%
01:00 +28°C° 0 mm 2 mps 748 mmHg 82%
02:00 +27°C° 0 mm 2 mps 748 mmHg 83%
03:00 +27°C° 0 mm 2 mps 748 mmHg 83%
04:00 +27°C° 0 mm 3 mps 749 mmHg 84%
05:00 +27°C° 0 mm 3 mps 749 mmHg 85%
06:00 +28°C° 0 mm 4 mps 750 mmHg 82%
07:00 +28°C° 0 mm 4 mps 750 mmHg 80%
08:00 +29°C° 0 mm 5 mps 751 mmHg 78%
09:00 +32°C° 0 mm 5 mps 751 mmHg 71%
10:00 +34°C° 0 mm 5 mps 751 mmHg 64%
11:00 +35°C° 0 mm 5 mps 751 mmHg 57%
12:00 +36°C° 0 mm 4 mps 750 mmHg 52%
13:00 +37°C° 0 mm 4 mps 749 mmHg 47%
14:00 +38°C° 0 mm 3 mps 748 mmHg 42%
15:00 +38°C° 0 mm 3 mps 748 mmHg 44%
16:00 +37°C° 0 mm 3 mps 748 mmHg 46%
17:00 +37°C° 0 mm 2 mps 747 mmHg 48%
18:00 +35°C° 0 mm 2 mps 748 mmHg 51%
19:00 +32°C° 0 mm 2 mps 748 mmHg 54%
20:00 +31°C° 0 mm 3 mps 749 mmHg 57%
21:00 +30°C° 0 mm 2 mps 749 mmHg 58%
22:00 +30°C° 0 mm 2 mps 749 mmHg 59%
23:00 +29°C° 0 mm 2 mps 749 mmHg 60%

24 September, Thursday

Time Temperature Precipitation Wind Pressure Humidity
00:00 +28°C° 0 mm 3 mps 749 mmHg 61%
01:00 +28°C° 0 mm 3 mps 749 mmHg 62%
02:00 +27°C° 0 mm 3 mps 749 mmHg 64%
03:00 +27°C° 0 mm 3 mps 749 mmHg 68%
04:00 +27°C° 0 mm 4 mps 749 mmHg 72%
05:00 +26°C° 0 mm 4 mps 749 mmHg 76%
06:00 +27°C° 0 mm 5 mps 750 mmHg 76%
07:00 +28°C° 0 mm 5 mps 751 mmHg 76%
08:00 +29°C° 0 mm 6 mps 751 mmHg 76%
09:00 +30°C° 0 mm 5 mps 751 mmHg 70%
10:00 +33°C° 0 mm 5 mps 751 mmHg 64%
11:00 +34°C° 0 mm 5 mps 751 mmHg 58%
12:00 +35°C° 0 mm 4 mps 751 mmHg 56%
13:00 +35°C° 0 mm 4 mps 750 mmHg 53%
14:00 +36°C° 0 mm 4 mps 749 mmHg 51%
15:00 +35°C° 0 mm 3 mps 749 mmHg 53%
16:00 +35°C° 0 mm 3 mps 749 mmHg 56%
17:00 +35°C° 0 mm 3 mps 748 mmHg 58%
18:00 +32°C° 0 mm 2 mps 749 mmHg 60%
19:00 +31°C° 0 mm 2 mps 749 mmHg 63%
20:00 +29°C° 0 mm 2 mps 749 mmHg 65%
21:00 +29°C° 0 mm 2 mps 750 mmHg 65%
22:00 +28°C° 0 mm 2 mps 750 mmHg 66%
23:00 +28°C° 0 mm 2 mps 750 mmHg 66%
Show more